Tracking 34352 objects as of 8-Jun-2026
HD Live streaming from Space Station
objects crossing your sky now

GSTAR 4

Track GSTAR 4 now!
GSTAR 4 is classified as:


NORAD ID: 20946
Int'l Code: 1990-100B
Perigee: 36,075.8 km
Apogee: 36,147.3 km
Inclination: 14.3 °
Period: 1,452.4 minutes
Semi major axis: 42482 km
RCS: 8.7599 m2 (large)
Launch date: November 20, 1990
Source: United States (US)
Launch site: FRENCH GUIANA (FRGUI)
Your satellite tracking list
Your tracking list is empty




NASA's NSSDC Master Catalog

Two Line Element Set (TLE):
1 20946U 90100B   26158.87662722 -.00000262  00000-0  00000+0 0  9993
2 20946  14.2710  10.1713 0008413 353.3397   9.9385  0.99148687 46725
Source of the keplerian elements: AFSPC